Simultaneous Nadir Overpasses (SNOs) Predictions

Prediction of SNOs between GOES-14 and NOAA-20 Satellite Orbit:

Table of predicted SNOs for the next 14.0 days since TLE Epoch: 5/17/2019
Index Date Time (GOES-14) GOES-14 Lat,Lon NOAA-20 Lat,Lon Distance(km) Time Diff (sec)
1 05/18/2019 08:08:01 0.09,-104.40 -0.76,-100.54 439.73 80
2 05/19/2019 20:29:57 -0.07,-104.48 -0.41,-105.85 156.77 80
3 05/20/2019 20:08:33 -0.08,-104.48 0.64,-101.33 359.93 80
4 05/22/2019 08:30:20 0.06,-104.41 0.53,-106.60 249.01 80
5 05/23/2019 08:14:15 0.07,-104.41 -0.45,-102.06 268.56 80
6 05/24/2019 20:36:11 -0.05,-104.51 -0.71,-107.37 326.20 80
7 05/25/2019 20:14:45 -0.07,-104.51 0.28,-102.83 190.81 80
8 05/27/2019 08:36:33 0.04,-104.43 0.90,-108.10 419.31 80
9 05/28/2019 08:20:28 0.06,-104.44 -0.15,-103.57 98.48 80
10 05/29/2019 20:42:25 -0.03,-104.55 -1.00,-108.89 494.62 80
11 05/30/2019 20:20:59 -0.05,-104.55 -0.02,-104.35 22.53 80




NCC Satellite Simultaneous Nadir Overpasses (SNOs) Prediction Service
